Showing default

ICEYE-X42, 62698

Orbit data source: Space-Track

ICEYE-X42, 62698 is an Emirian payload satellite in SSO that was launched on Tue, 14 Jan 2025 UTC via an FALCON 9 launch vehicle from the Air Force Western Test Range (AFWTR). Payload-class satellites include a variety of spacecraft equipped with specific instruments for various scientific and technological missions. These include communications satellites like Starlink; space stations such as the ISS; scientific satellites like the Hubble; Earth observation satellites from companies like Planet Labs, Umbra, and HawkEye 360; GPS; miniature CubeSats for education and research; and military/defense satellites.

Loading next visibility...
Identifier
62698, 2025-009CT
Orbit
SSO
Country
Flag of AEAE / UAE
Related business
None
Manufacturer
ICEYE
Mission
Operational Commercial Radar Imaging
Bus & Motor
ICEYE, Unknown motor
Mass
80 kg wet, 80 kg dry
Launch date (UTC)
2025-01-14 (1 year ago)
Launch vehicle
FALCON 9
Launch site
Air Force Western Test Range (AFWTR)
Object type
Payload
Rocket body
Debris
Shape & HBR
Box + 1 Pan, 2.4 m
Radar Cross Section
0.776 m², Medium (>0.1 m² and < 1m²)

Expand to show TLE details & history
Last TLE update: 7 hours ago

TLE from 7 hours ago
0 ICEYE-X42
1 62698U 25009CT  26125.75001160  .00002593  00000-0  26218-3 0  9994
2 62698  97.7387 204.8263 0001695 110.0319 250.1082 14.91869553 70966
Epoch: 2026-05-05T18:00Z
TLE epoch observation values (Epoch: 2026-05-05T18:00:01.002Z)
Latitude
-0.00006°
Longitude
71.20175°
Altitude
595.551 km
Speed
7.562 km/s
True Right ascension
13h 39m 18s
True Declination
0° 00' 00"
Sunlit
Object was in full shadow at epoch
Visualization orbit readout
Latitude
Unknown
Longitude
Unknown
Altitude
Unknown
Speed
Unknown
Apparent Right ascension
Unknown
Apparent Declination
Unknown
Sunlit
N/A
Visualization observer readout
Local Sidereal Time
09:06:14
Azimuth
Unknown
Elevation
Unknown
Doppler factor
Unknown
Orbital elements
Apogee altitude
590.305 km
Perigee altitude
587.943 km
Semi-major axis
6,967.261 km
Eccentricity
0.00017
Inclination
97.7387°
RAAN
204.8263°
Arg. of periapsis
110.0319°
True anomaly
250.08994°
Mean anomaly
250.1082°
Eccentric anomaly
250.09907°
Mean motion
3.73207 °/min
Orbital period
96.46 mins
BSTAR
0.00026218
Loading maneuver chart data...
Computing Atmospheric mass density...
Loading historical data...
Loading historical data...
Loading historical data...
Loading historical data...
Loading historical data...
Loading historical data...
Loading historical data...

Documentation

Showing up to 5 results
|